Regional Weather Roundup
Issued by NWS

Home | Current Version | Previous Version | Graphics & Text | Print | Product List | Glossary On
Versions: 1 2 3 4 5 6 7 8 9 10 11 12 13 14 15 16 17 18 19 20 21 22 23 24 25 26 27
000
ASUS45 KTFX 162010
RWRMT
MONTANA REGIONAL WEATHER ROUNDUP
NATIONAL WEATHER SERVICE GREAT FALLS MT
100 PM MST MON JAN 16 2017

NOTE: "FAIR" INDICATES FEW OR NO CLOUDS BELOW 12000 FEET WITH NO
SIGNIFICANT WEATHER AND/OR OBSTRUCTIONS TO VISIBILITY.

MTZ001>007-043-162100-
WEST OF THE DIVIDE

CITY           SKY/WX    TMP DP  RH WIND       PRES   REMARKS
KALISPELL      LGT SNOW  12   8  84 CALM      30.34F
MISSOULA       SUNNY      3  -2  79 CALM      30.36F
BUTTE          CLOUDY    10   2  69 CALM      30.18F
MULLAN PASS    MOSUNNY   23  17  78 S8        30.14F WCI  14
ANACONDA         N/A     16   3  57 NW3       30.19F
DEER LODGE       N/A      9   1  72 CALM      30.27S
EUREKA           N/A     12   3  67 CALM      30.36F
HAMILTON         N/A     14   7  73 CALM      30.31F
RONAN            N/A      7   2  80 MISG      30.33F VSB 0
$$

MTZ008-052>055-162100-
SOUTHWEST MONTANA

CITY           SKY/WX    TMP DP  RH WIND       PRES   REMARKS
BOZEMAN        CLOUDY    13   5  70 S7        30.21F WCI   3
DILLON         CLOUDY    32   2  27 SW5       30.18F
W YELLOWSTONE  CLOUDY     7   5  92 NE3       30.20F
ENNIS          SUNNY     19   9  63 E7        30.22F WCI  10
TWIN BRIDGES     N/A     14  -1  51 S9        30.16F WCI   2
$$

MTZ009-010-012-014-046-048-049-054-162100-
EAST SLOPES AND CENTRAL MONTANA

CITY           SKY/WX    TMP DP  RH WIND       PRES   REMARKS
CUT BANK       MOSUNNY   36  22  56 W24       29.94F WCI  24
GREAT FALLS    CLOUDY    32  18  56 SW21      30.03F WCI  20
MALMSTROM AFB  CLOUDY    32  20  61 SW20      30.05F WCI  20
HELENA         CLOUDY     6  -3  66 CALM      30.23F
AUGUSTA          N/A     31  20  64 S5        30.00F
BOWMANS CRNR     N/A     26  15  63 S23       30.03S WCI  11
CHOTEAU          N/A     39  21  48 SW9       30.01F
CONRAD           N/A     26  19  74 S3        30.01F
FAIRFIELD        N/A     29  17  61 S22       30.01F WCI  15
POWER            N/A     28  20  70 SW9       30.02F WCI  19
RAYNESFORD       N/A     38  16  39 W8        30.03F
ULM              N/A     32  19  60 MISG      30.05F
$$

MTZ011-013-016-021-045-047-050-051-162100-
NORTH CENTRAL MONTANA

CITY           SKY/WX    TMP DP  RH WIND       PRES   REMARKS
HAVRE          CLOUDY    19  12  74 W10       30.07F WCI   7
LEWISTOWN      CLOUDY    31  14  49 E6        30.03F WCI  25
N BAR RANCH      N/A     34  14  44 W5        30.03F
CHINOOK          N/A     18   9  68 E5        30.09F
DENTON           N/A     21  13  71 SE15      30.01F WCI   8
FORT BENTON      N/A     21  10  63 MISG      30.07F
GEYSER           N/A     33  20  58 SW8       30.01F WCI  27
GRASS RANGE      N/A     36  18  47 W13       30.00F WCI  28
JUDITH GAP       N/A     28  15  58 S7        30.02F WCI  21
ROY              N/A     33  18  55 MISG      30.04F
STANFORD         N/A     31  19  59 CALM      30.02F
WINIFRED         N/A     33  19  56 SW3       30.03F
$$

MTZ017>020-022>027-061-062-162100-
NORTHEAST MONTANA

CITY           SKY/WX    TMP DP  RH WIND       PRES   REMARKS
GLASGOW        CLOUDY    17   5  59 W8        30.10F WCI   7
JORDAN           N/A     28  16  60 W6        30.10F WCI  22
SIDNEY         SUNNY     17  11  77 S8        30.12F WCI   7
WOLF POINT     SUNNY     17   9  70 W8        30.12F WCI   7
PLENTYWOOD       N/A     21  12  68 CALM      30.08F
POPLAR           N/A     16   9  73 W6        30.13F WCI   7
SCOBEY           N/A     20   9  62 CALM      30.05F
$$

MTZ028>42-056>058-162100-
SOUTHCENTRAL AND SOUTHEAST MONTANA

CITY           SKY/WX    TMP DP  RH WIND       PRES   REMARKS
BAKER          SUNNY     20  10  65 W5        30.11S
BILLINGS       CLOUDY    23  10  57 SW16      30.10F WCI  10
LIVINGSTON     CLOUDY    28  10  46 W20       30.12S WCI  15
MILES CITY     CLOUDY    15   5  64 SW6       30.13F WCI   6
BIG TIMBER     SUNNY     32  14  47 W26G35    30.08F WCI  18
EKALAKA          N/A     23   9  55 W6        30.05F WCI  16
FORSYTH          N/A     19   7  58 W5        30.13F
HARLOWTON        N/A     33  13  45 W35       30.04F WCI  17
LAUREL           N/A     22   6  50 SW14      30.08F WCI   9
$$

REGIONAL REPORTS...DAKOTAS

CITY           SKY/WX    TMP DP  RH WIND       PRES   REMARKS
WILLISTON      SUNNY     17  11  77 SW8       30.11F WCI   7
MINOT          SUNNY     29  21  72 W12       30.03F WCI  19
DICKINSON      SUNNY     20  13  74 NW14      30.04F WCI   7
BEACH            N/A     19  14  79 W14       30.12S WCI   6
CROSBY           N/A     23  18  80 SW8       30.09F WCI  14
TIOGA            N/A     18  16  93 W10       30.08F WCI   6
WATFORD CITY     N/A     18  10  73 SW8       30.11S WCI   7
BISMARCK       SUNNY     26  15  63 NW7       30.05F WCI  18
GRAND FORKS    CLOUDY    19  12  74 SW5       30.02F
FARGO          SUNNY     21  12  68 SW6       30.05F WCI  13
BUFFALO SD       N/A     25  16  68 NW23      29.99F WCI  10
RAPID CITY     SUNNY     34  20  56 N18       30.04F WCI  23
$$

REGIONAL REPORTS...WYOMING/IDAHO/WASHINGTON

CITY           SKY/WX    TMP DP  RH WIND       PRES   REMARKS
GILLETTE       SUNNY     31  15  52 W10       30.09F WCI  22
SHERIDAN       SUNNY     32  15  49 SW10      30.11F WCI  24
BUFFALO WY     SUNNY     32   8  36 E3        30.09F
CODY           CLOUDY    31  14  49 W5        30.10F
YELLOWSTONE LA   N/A      1  -5  75 CALM      30.17F
IDAHO FALLS    CLOUDY     1  -3  83 N5        30.34F
SALMON         CLOUDY    -9  -9 100 CALM      30.51F
BOISE          SUNNY     10   5  80 S5        30.46F
SPOKANE        LGT SNOW  12  10  92 CALM      30.33F VSB 1
$$

REGIONAL REPORTS...ALBERTA

CITY           SKY/WX    TMP DP  RH WIND       PRES   REMARKS
EDMONTON       CLOUDY    32  16  51 SW12      29.70F WCI  23
CALGARY        CLOUDY    36  19  51 S6        29.82F WCI  31
LETHBRIDGE     PTSUNNY   37  23  56 W26G36    29.88F WCI  26
MEDICINE HAT   PTSUNNY   34  19  55 SW16      29.94F WCI  23
WATERTON GATE    N/A     36  14  41 SW33G52     N/A  WCI  22
CARDSTON         N/A     43  18  36 W17G26      N/A
MILK RIVER       N/A     32  21  64 S10         N/A  WCI  24
$$

REGIONAL REPORTS...SASKATCHEWAN

CITY           SKY/WX    TMP DP  RH WIND       PRES   REMARKS
SWIFT CURRENT  SUNNY     34  23  64 SW20      29.96F WCI  22
REGINA         MOSUNNY   25  18  74 S3        30.04S
SASKATOON      PTSUNNY   28  19  69 SW15      29.94F WCI  17
VAL MARIE        N/A     18   9  68 S3          N/A
ROCKGLEN         N/A     32  21  64 SW9         N/A  WCI  24
ASSINIBOIA       N/A     28  18  64 S12         N/A  WCI  18
$$




USA.gov is the U.S. government's official web portal to all federal, state and local government web resources and services.